Weather History for Panama City, FL

Change the Weather History Date:

Thursday, November 29, 2012

  Actual Average Record
Temperature  
Mean Temperature 53 °F -  
Max Temperature 66 °F - 72 °F (2010)
Min Temperature 39 °F - 32 °F (2013)
Degree Days  
Heating Degree Days 12    
Cooling Degree Days 0    
Growing Degree Days 2 (Base 50)    
Moisture  
Dew Point 45 °F    
Average Humidity 75    
Maximum Humidity 93    
Minimum Humidity 56    
Precipitation  
Precipitation 0.00 in - 0.00 in (2014)
Sea Level Pressure  
Sea Level Pressure 30.35 in    
Wind  
Wind Speed 3 mph (NNE)    
Max Wind Speed 12 mph    
Max Gust Speed 15 mph    
Visibility 7 miles    
Events      
T = Trace of Precipitation, MM = Missing Value Source: NWS Daily Summary

Daily Weather History Graph

Daily Weather History Graph

Search for Another Location

Airport:

Trip Planner

Search our weather history database for the weather conditions in past years. The results will help you decide how hot, cold, wet, or windy it might be!

Date:

Astronomy

Nov. 29, 2012 Rise Set
Actual Time 7:20 AM EST 5:42 PM EST
Civil Twilight 6:54 AM EST 6:08 PM EST
Nautical Twilight 6:25 AM EST 6:37 PM EST
Astronomical Twilight 5:56 AM EST 7:06 PM EST
Moon 6:45 PM EST 8:06 AM EST
Length of Visible Light 11h 13m
Length of Day
10h 21m
Full, 99% of the Moon is Illuminated
Nov 29
Full
Dec 6
Last Quarter
Dec 13
New
Dec 20
First Quarter
Dec 28
Full

Hourly Weather History & Observations

Time (EST) Temp. Windchill Dew Point Humidity Pressure Visibility Wind Dir Wind Speed Gust Speed Precip Events Conditions
12:53 AM 41.0 °F - 39.0 °F 93% 30.37 in 4.0 mi Calm Calm - N/A   Clear
1:53 AM 39.0 °F 36.8 °F 37.0 °F 93% 30.36 in 5.0 mi NNE 3.5 mph - N/A   Clear
2:53 AM 39.0 °F 36.8 °F 37.0 °F 93% 30.36 in 3.0 mi North 3.5 mph - N/A   Clear
3:25 AM 39.2 °F - 37.4 °F 93% 30.33 in 1.8 mi Calm Calm - N/A   Scattered Clouds
3:35 AM 39.2 °F - 37.4 °F 93% 30.32 in 2.0 mi Calm Calm - N/A   Mostly Cloudy
3:43 AM 39.2 °F - 37.4 °F 93% 30.32 in 4.0 mi Calm Calm - N/A   Mostly Cloudy
3:53 AM 39.9 °F - 37.9 °F 93% 30.36 in 3.0 mi Calm Calm - N/A   Mostly Cloudy
4:53 AM 41.0 °F - 39.0 °F 93% 30.35 in 5.0 mi Calm Calm - N/A   Overcast
5:53 AM 42.1 °F 37.7 °F 39.9 °F 92% 30.36 in 5.0 mi NNE 6.9 mph - N/A   Mostly Cloudy
6:53 AM 44.1 °F 39.5 °F 41.0 °F 89% 30.38 in 6.0 mi NNE 8.1 mph - N/A   Overcast
7:53 AM 45.0 °F 40.6 °F 42.1 °F 90% 30.39 in 5.0 mi NE 8.1 mph - N/A   Overcast
8:53 AM 48.0 °F - 45.0 °F 89% 30.40 in 5.0 mi NE 8.1 mph - N/A   Overcast
9:00 AM 48.2 °F - 44.6 °F 87% 30.36 in 6.0 mi NNE 6.9 mph - N/A   Scattered Clouds
9:53 AM 54.0 °F - 46.9 °F 77% 30.40 in 8.0 mi NE 6.9 mph - N/A   Clear
10:53 AM 57.9 °F - 48.0 °F 70% 30.41 in 10.0 mi ENE 8.1 mph - N/A   Overcast
11:53 AM 60.1 °F - 48.0 °F 64% 30.39 in 10.0 mi NNE 9.2 mph - N/A   Scattered Clouds
12:53 PM 63.0 °F - 48.9 °F 60% 30.37 in 10.0 mi NE 5.8 mph - N/A   Clear
1:53 PM 64.0 °F - 48.9 °F 58% 30.34 in 10.0 mi Calm Calm - N/A   Clear
2:53 PM 66.0 °F - 50.0 °F 56% 30.31 in 7.0 mi NE 5.8 mph - N/A   Partly Cloudy
3:53 PM 64.0 °F - 50.0 °F 60% 30.31 in 10.0 mi North 5.8 mph - N/A   Overcast
4:53 PM 63.0 °F - 51.1 °F 65% 30.32 in 10.0 mi North 3.5 mph - N/A   Overcast
5:53 PM 59.0 °F - 53.1 °F 81% 30.32 in 10.0 mi North 4.6 mph - N/A   Overcast
6:53 PM 55.9 °F - 50.0 °F 80% 30.32 in 10.0 mi North 6.9 mph - N/A   Mostly Cloudy
7:53 PM 54.0 °F - 48.9 °F 83% 30.32 in 9.0 mi North 3.5 mph - N/A   Clear
8:53 PM 53.1 °F - 48.9 °F 86% 30.32 in 9.0 mi North 3.5 mph - N/A   Partly Cloudy
9:53 PM 51.1 °F - 46.9 °F 86% 30.33 in 8.0 mi NW 4.6 mph - N/A   Clear
10:53 PM 50.0 °F - 46.9 °F 89% 30.33 in 7.0 mi Calm Calm - N/A   Partly Cloudy
11:53 PM 54.0 °F - 48.9 °F 83% 30.31 in 10.0 mi NNE 6.9 mph - N/A   Overcast